sat.trackr.live / text

‹ back to catalog

STARLINK-11173 [DTC]

NORAD 60192 · 2024-124K

PAYLOAD ACTIVE UNKNOWN

§ Identity

Operator
Country
US
Launch date
2024-07-03
Launch site
AFETR
Launch vehicle
Mass (kg)
RCS (m²)

Purposes: comms

External: N2YO · Heavens-Above · Gunter

§ Orbital elements

Epoch: 2026-09-20T06:33:00.785664Z

Period
91.74 min
Inclination
53.1587°
Eccentricity
0.0000931
Mean motion
15.69708809 rev/d
Perigee alt
359.1 km
Apogee alt
360.4 km
Semi-major
6,737.9 km
B*
9.6702e-6
RAAN
282.1697°
Arg perigee
81.0560°
Mean anomaly
279.0563°
Rev number
12,709

§ Raw data

STARLINK-11173 [DTC]1 60192U 24124K   26263.27292576  .00000583  00000+0  96702-5 0  99942 60192  53.1587 282.1697 0000931  81.0560 279.0563 15.69708809127091

JSON: /api/v1/satellites/60192 · /tle

For live sub-satellite position, see the globe view (requires WebGL).

§ Visibility from observer

Set your observer location to see the next 7 days of passes ≥ 10°. The values pass through the URL so the page stays shareable.

No JS? Fill the form by hand. The geolocation button needs JavaScript.